This is the latest recevied weather packets stored in our database for station/object K0NV. If no packets are shown the sender has not sent any weather packets the latest 10 day(s).
| Time | Temp. | Humidity | Pressure | Rain* | Wind** | Luminosity | Snow |
|---|---|---|---|---|---|---|---|
| 1777739614 | 16.67° C | 52% | 1022.2 hPa | 0 mm | - | 819 W/m² | - |
| 1777739312 | 17.22° C | 51% | 1022.1 hPa | 0 mm | - | 816 W/m² | - |
| 1777739008 | 16.67° C | 50% | 1022 hPa | 0 mm | - | 815 W/m² | - |
| 1777738705 | 16.67° C | 53% | 1021.8 hPa | 0 mm | - | 824 W/m² | - |
| 1777738402 | 16.11° C | 49% | 1022.1 hPa | 0 mm | - | 825 W/m² | - |
| 1777738100 | 16.11° C | 53% | 1022.3 hPa | 0 mm | - | 849 W/m² | - |
| 1777737798 | 16.11° C | 52% | 1022 hPa | 0 mm | - | 877 W/m² | - |
| 1777737497 | 16.11° C | 51% | 1022.1 hPa | 0 mm | - | 864 W/m² | - |
| 1777737194 | 16.11° C | 54% | 1022.1 hPa | 0 mm | - | 869 W/m² | - |
| 1777736889 | 16.11° C | 50% | 1022 hPa | 0 mm | - | 886 W/m² | - |
| 1777736276 | 15.56° C | 50% | 1021.7 hPa | 0 mm | - | 864 W/m² | - |
| 1777735973 | 15.56° C | 52% | 1022 hPa | 0 mm | - | 821 W/m² | - |
| 1777735670 | 16.11° C | 50% | 1022.2 hPa | 0 mm | - | 770 W/m² | - |
| 1777735368 | 16.11° C | 52% | 1021.8 hPa | 0 mm | - | 743 W/m² | - |
| 1777735065 | 15° C | 51% | 1022.2 hPa | 0 mm | - | 738 W/m² | - |
| 1777734762 | 15° C | 53% | 1022.2 hPa | 0 mm | - | 719 W/m² | - |
| 1777734460 | 15.56° C | 52% | 1022.1 hPa | 0 mm | - | 671 W/m² | - |
| 1777734156 | 15° C | 55% | 1022 hPa | 0 mm | - | 674 W/m² | - |
| 1777733852 | 14.44° C | 55% | 1021.8 hPa | 0 mm | - | 689 W/m² | - |
| 1777733548 | 15° C | 55% | 1022 hPa | 0 mm | - | 693 W/m² | - |
| 1777733245 | 15° C | 59% | 1021.7 hPa | 0 mm | - | 683 W/m² | - |
| 1777732937 | 14.44° C | 59% | 1021.7 hPa | 0 mm | - | 655 W/m² | - |
| 1777732632 | 14.44° C | 56% | 1021.7 hPa | 0 mm | - | 608 W/m² | - |
| 1777732330 | 13.89° C | 62% | 1021.5 hPa | 0 mm | - | 569 W/m² | - |
| 1777732028 | 13.33° C | 63% | 1021.5 hPa | 0 mm | - | 528 W/m² | - |
* Rain latest hour (hover to see other rain measurements)
** Current wind speed in m/s (hover to see current wind gust speed)